Change the Weather History Date:

Wednesday, October 20, 2010

  Actual Average Record
Temperature  
Mean Temperature 54 °F 51 °F  
Max Temperature 77 °F 69 °F 90 °F (1947)
Min Temperature 30 °F 34 °F 17 °F (1989)
Degree Days  
Heating Degree Days 11 14  
Month to date heating degree days 135 204  
Since 1 July heating degree days 146 287  
Cooling Degree Days 0 0  
Month to date cooling degree days 4 8  
Year to date cooling degree days 1451 1120  
Growing Degree Days 4 (Base 50)    
Moisture  
Dew Point 28 °F    
Average Humidity 45    
Maximum Humidity 72    
Minimum Humidity 17    
Precipitation  
Precipitation 0.00 in 0.03 in 1.39 in (1986)
Month to date precipitation T 0.54  
Year to date precipitation 11.41 14.16  
Snow  
Snow 0.00 in - - ()
Month to date snowfall 0.0  
Snow Depth 0.00 in    
Sea Level Pressure  
Sea Level Pressure 30.03 in    
Wind  
Wind Speed 4 mph (SW)    
Max Wind Speed 13 mph    
Max Gust Speed 15 mph    
Visibility 10 miles    
Events      
T = Trace of Precipitation, MM = Missing Value Source: NWS Daily Summary

Daily Weather History Graph

Daily Weather History Graph

Search for Another Location

Airport or City:

Trip Planner

Search our weather history database for the weather conditions in past years. The results will help you decide how hot, cold, wet, or windy it might be!

Date:

Astronomy

Oct. 20, 2010 Rise Set
Actual Time 7:04 AM MDT 6:06 PM MDT
Civil Twilight 6:37 AM MDT 6:32 PM MDT
Nautical Twilight 6:06 AM MDT 7:03 PM MDT
Astronomical Twilight 5:36 AM MDT 7:33 PM MDT
Moon 4:40 PM MDT (10/20) 4:49 AM MDT (10/20)
Length of Visible Light 11h 55m
Length of Day
11h 01m
Waxing Gibbous, 95% of the Moon is Illuminated
Oct 20
Waxing Gibbous
Oct 22
Full
Oct 30
Last Quarter
Nov 5
New
Nov 13
First Quarter

Hourly Weather History & Observations

Time (MDT) Temp. Windchill Dew Point Humidity Pressure Visibility Wind Dir Wind Speed Gust Speed Precip Events Conditions
12:53 AM 39.9 °F 35.8 °F 27.0 °F 60% 30.05 in 10.0 mi SSW 5.8 mph - N/A   Clear
1:53 AM 35.1 °F 28.6 °F 25.0 °F 67% 30.06 in 10.0 mi SSW 8.1 mph - N/A   Clear
2:53 AM 32.0 °F 26.4 °F 23.0 °F 69% 30.07 in 10.0 mi WSW 5.8 mph - N/A   Clear
3:53 AM 33.1 °F 26.9 °F 24.1 °F 70% 30.06 in 10.0 mi WSW 6.9 mph - N/A   Clear
4:53 AM 34.0 °F 28.0 °F 24.1 °F 67% 30.06 in 10.0 mi SSW 6.9 mph - N/A   Clear
5:53 AM 32.0 °F 25.6 °F 23.0 °F 69% 30.07 in 10.0 mi SSW 6.9 mph - N/A   Clear
6:53 AM 30.9 °F 27.5 °F 23.0 °F 72% 30.10 in 10.0 mi SSW 3.5 mph - N/A   Clear
7:53 AM 36.0 °F - 26.1 °F 67% 30.11 in 10.0 mi Calm Calm - N/A   Clear
8:53 AM 46.9 °F - 27.0 °F 46% 30.09 in 10.0 mi West 6.9 mph - N/A   Clear
9:53 AM 54.0 °F - 28.0 °F 37% 30.09 in 10.0 mi WNW 8.1 mph - N/A   Clear
10:53 AM 60.1 °F - 27.0 °F 28% 30.07 in 10.0 mi West 9.2 mph - N/A   Clear
11:53 AM 66.0 °F - 28.9 °F 25% 30.04 in 10.0 mi West 6.9 mph - N/A   Clear
12:53 PM 72.0 °F - 27.0 °F 19% 30.01 in 10.0 mi WSW 6.9 mph - N/A   Clear
1:53 PM 73.0 °F - 27.0 °F 18% 29.99 in 10.0 mi Calm Calm - N/A   Clear
2:53 PM 75.9 °F - 28.9 °F 18% 29.96 in 10.0 mi NNW 3.5 mph - N/A   Clear
3:53 PM 77.0 °F - 30.9 °F 19% 29.95 in 10.0 mi ENE 3.5 mph - N/A   Clear
4:53 PM 75.9 °F - 33.1 °F 21% 29.94 in 10.0 mi East 5.8 mph - N/A   Clear
5:53 PM 69.1 °F - 33.1 °F 26% 29.96 in 10.0 mi East 3.5 mph - N/A   Clear
6:53 PM 60.1 °F - 32.0 °F 35% 29.99 in 10.0 mi East 6.9 mph - N/A   Clear
7:53 PM 55.9 °F - 30.9 °F 39% 30.01 in 10.0 mi Calm Calm - N/A   Clear
8:53 PM 53.1 °F - 30.9 °F 43% 30.00 in 10.0 mi Calm Calm - N/A   Clear
9:53 PM 46.9 °F - 28.9 °F 50% 30.00 in 10.0 mi Calm Calm - N/A   Clear
10:53 PM 46.0 °F - 32.0 °F 58% 30.00 in 10.0 mi Calm Calm - N/A   Clear
11:53 PM 43.0 °F - 30.0 °F 60% 29.99 in 10.0 mi Calm Calm - N/A   Clear